Regional Weather Roundup
Issued by NWS

Home | Current Version | Previous Version | Graphics & Text | Print | Product List | Glossary On
Versions: 1 2 3 4 5 6 7 8 9 10 11 12 13 14 15 16 17 18 19 20 21 22 23 24 25 26 27 28 29 30 31 32 33 34 35 36 37 38 39 40 41 42 43 44 45 46 47 48 49 50
000
ASUS45 KBOU 201307
RWRCO

WEATHER ROUNDUP FOR COLORADO
NATIONAL WEATHER SERVICE DENVER/BOULDER CO
700 AM MDT MON APR 20 2015

NOTE: "FAIR" INDICATES FEW OR NO CLOUDS BELOW 12000 FEET WITH NO
SIGNIFICANT WEATHER AND/OR OBSTRUCTIONS TO VISIBILITY.

COZ001>005-013-030-031-201400-
...NORTHWEST COLORADO...

CITY           SKY/WX    TMP DP  RH WIND       PRES   REMARKS
CRAIG          CLOUDY    35  33  92 E5        30.03S WCI  31
HAYDEN         CLOUDY    34  28  80 SE5       30.03S WCI  30
MEEKER         PTCLDY    32  29  88 CALM      30.02R
MOUNT WERNER   NOT AVBL
STEAMBOAT SPGS CLOUDY    30  29  98 CALM      30.03R
WALDEN         PTCLDY    23  21  93 NE3       30.02S
$$

COZ006>008-011-201400-
...WEST CENTRAL VALLEYS...

CITY           SKY/WX    TMP DP  RH WIND       PRES   REMARKS
GRAND JUNCTION PTCLDY    41  38  89 SE7       29.98S
MONTROSE       LGT RAIN  42  38  85 W3        30.03R
EAGLE          CLOUDY    34  34 100 CALM      30.05R
RIFLE          CLOUDY    39  36  89 S3        30.02R
DELTA          CLOUDY    44  41  89 NE6       30.02S
NUCLA          MOCLDY    36  32  87 E7        30.04R
$$

COZ017>023-064>068-201400-
...SOUTHWEST COLORADO...

CITY           SKY/WX    TMP DP  RH WIND       PRES   REMARKS
DURANGO        PTCLDY    31  22  69 E6        30.01R WCI  25
CORTEZ         CLEAR     31  26  82 CALM      30.00R
PAGOSA SPRINGS MOCLDY    33  25  74 CALM      30.04R
TELLURIDE      CLOUDY    33  32  95 CALM      30.08S
WOLF CREEK PAS CLOUDY    23  21  93 SW16      30.13R WCI  10
$$

COZ009-010-012-014-032>034-037-058>063-201400-
...CENTRAL COLORADO...

CITY           SKY/WX    TMP DP  RH WIND       PRES   REMARKS
ASPEN          CLOUDY    33  28  81 CALM      30.02R
BUENA VISTA    MOCLDY    25  23  89 NW3       30.02R
COPPER MTN     NOT AVBL
BERTHOUD PASS  CLOUDY    14   7  73 MISG      30.00R
COTTONWOOD PAS LGT SNOW  32  28  86 N5        30.02S WCI  27
GUNNISON       PTCLDY    34  28  80 N6        30.06R WCI  29
KREMMLING      CLOUDY    30  28  93 CALM      30.04S
LEADVILLE      LGT SNOW  26  23  88 N7        30.02R FOG     WCI  18
SALIDA         MOCLDY    32  28  86 NW3       30.10R
SUNLIGHT       FOG       30  30 100 W3        30.11R VSB<1/4
WILKERSON PASS LGT SNOW  23  21  93 NW8       30.05S WCI  14
$$

COZ069>075-201400-
...SAN LUIS VALLEY/SANGRE DE CRISTO MOUNTAINS...

CITY           SKY/WX    TMP DP  RH WIND       PRES   REMARKS
ALAMOSA        CLOUDY    35  27  72 S8        30.02R WCI  29
LA VETA PASS   CLOUDY    27  27 100 SW7       30.03S FOG     WCI  19
SAGUACHE       PTCLDY    28  27  93 N5        30.03R WCI  23
$$

COZ035-036-038>040-201400-
...NORTHERN COLORADO FRONT RANGE...

CITY           SKY/WX    TMP DP  RH WIND       PRES   REMARKS
DENVER INTL AP PTCLDY    31  29  92 CALM      30.04S
DMNS CITY PARK   N/A     35  29  78 NE3       30.05S
AURORA         NOT AVBL
FRONT RANGE AP MOCLDY    32  30  93 NW3       30.05
ERIE MUNI ARPT PTCLDY    32  31  98 CALM      30.05S
BOULDER MUN AP CLOUDY    34  32  93 NE5       30.04S WCI  30
CENTENNIAL     MOCLDY    33  26  75 S3        30.04S
BROOMFIELD     MOCLDY    32  32 100 CALM      30.04S
FORT COLLINS   MOCLDY    32  30  93 S3        30.06S
LONGMONT       CLOUDY    37  32  84 CALM      30.06F
$$

COZ041-046-047-076>085-087-088-201400-
...PIKES PEAK/PALMER DIVIDE AND SOUTHERN FOOTHILLS...

CITY           SKY/WX    TMP DP  RH WIND       PRES   REMARKS
COLO. SPRINGS  MOCLDY    36  28  73 NW3       30.04R
A. F. ACADEMY  NOT AVBL
ELLICOTT       CLOUDY   N/A N/A N/A CALM      30.02R
FALCON         CLOUDY    33  27  77 NE8       30.03S WCI  26
FORT CARSON    NOT AVBL
LIMON          CLOUDY    33  26  75 N9        30.03S WCI  25
MONUMENT HILL  CLOUDY    27  27 100 N6        30.03S WCI  20
TRINIDAD       MOCLDY    39  33  79 E3        30.00R
$$

COZ042>045-048>051-090-091-201400-
...NORTHEAST COLORADO...

CITY           SKY/WX    TMP DP  RH WIND       PRES   REMARKS
GREELEY ARPT   MOCLDY    34  27  75 W3        30.06S
AKRON          CLOUDY    36  28  73 W9        30.02S
BURLINGTON     CLOUDY    35  29  78 W5        30.03R WCI  31
WRAY           MOCLDY    33  29  86 W7        30.02R WCI  26
STERLING       MOCLDY    36  30  80 NW9       30.02R
HOLYOKE        PTCLDY    34  28  80 W10       30.01S WCI  26
FORT MORGAN    CLOUDY    36  28  74 W6        30.04S
$$

COZ086-089-092>099-201400-
...SOUTHEAST COLORADO...

CITY           SKY/WX    TMP DP  RH WIND       PRES   REMARKS
PUEBLO         MOCLDY    34  30  85 CALM      30.03R
LA JUNTA       MOCLDY    39  33  79 N3        30.03R
LAMAR          CLOUDY    40  36  86 NE5       30.02R
SPRINGFIELD      N/A     40  33  76 SW3       30.03R
$$



USA.gov is the U.S. government's official web portal to all federal, state and local government web resources and services.